[[{"header":{"parameterUnit":"m.s-1","parameterCategory":1,"la1":30.2992,"la2":30.254,"lo1":-89.0895,"lo2":-89.0443,"dy":0.0025,"dx":0.0025,"nx":19,"ny":19,"refTime":"2026-05-14T21:00:00:Z","depth":0,"parameterNumber":2,"parameterNumberName":"U-component_of_WINDS"},"data":[0,0,0,-2.465,-2.4651,-2.4672,-2.4672,-2.4715,-2.4715,0,0,0,0,0,0,0,0,0,0,0,-2.4654,-2.4655,-2.465,-2.4651,-2.4672,-2.4672,-2.4715,-2.4715,0,0,0,0,0,0,0,0,0,0,0,-2.4654,-2.4655,-2.4655,-2.4651,-2.4672,-2.4672,-2.4715,-2.4693,0,0,0,0,0,0,0,0,0,0,-2.467,-2.4683,-2.4654,-2.4655,-2.4651,-2.4672,-2.4672,-2.4692,-2.4695,-2.4713,0,-2.4731,0,-2.4724,-2.4719,-2.472,0,0,0,-2.4644,-2.4681,-2.4678,-2.4655,-2.4652,-2.4672,-2.466,-2.4693,-2.4696,-2.4716,-2.4731,-2.4732,-2.4725,-2.472,-2.472,-2.4846,-2.4847,0,0,-2.4643,-2.4663,-2.4676,-2.468,-2.4678,-2.466,-2.4661,-2.4695,-2.4713,-2.4731,-2.4733,-2.4725,-2.472,-2.4721,-2.4845,-2.4847,0,0,0,-2.4644,-2.4663,-2.4658,-2.4679,-2.4681,-2.4661,-2.4662,-2.4711,-2.4708,-2.4734,-2.4726,-2.472,-2.4721,-2.4844,-2.4846,-2.4911,0,0,0,-2.4643,-2.4664,-2.4658,-2.4671,-2.4681,-2.4697,-2.4678,-2.4706,-2.4709,-2.4726,-2.472,-2.4722,-2.4843,-2.4845,-2.4907,-2.4939,0,0,0,-2.4649,-2.4664,-2.4671,-2.4672,-2.4681,-2.4695,-2.4694,-2.4706,-2.4705,-2.472,-2.4722,-2.4843,-2.4845,-2.4903,-2.4933,-2.4978,0,0,0,-2.4662,-2.4729,-2.4672,-2.4744,-2.4681,-2.4736,-2.4693,-2.4733,-2.4754,-2.4721,-2.4843,-2.4846,-2.4902,-2.4929,-2.4974,-2.5019,-2.504,0,0,-2.4758,-2.4741,-2.4782,-2.4731,-2.4801,-2.4731,-2.481,-2.481,-2.4793,-2.483,-2.4832,-2.4908,-2.4932,-2.4977,-2.5149,-2.5166,0,0,0,-2.4819,-2.4848,-2.4862,-2.4883,-2.4884,-2.4887,-2.4872,-2.4872,-2.4902,-2.4816,-2.4936,-2.495,-2.4975,-2.4996,-2.501,-2.503,-2.4856,-2.4856,-2.4856,-2.4985,-2.4958,-2.5023,-2.5,-2.502,-2.5004,-2.5018,-2.5015,-2.4983,-2.5012,-2.5023,-2.5131,-2.5156,-2.5166,-2.5188,-2.5045,-2.5045,-2.5045,-2.5045,-2.5123,-2.516,-2.5115,-2.5162,-2.5135,-2.5174,-2.5161,-2.5137,-2.517,-2.512,-2.5141,-2.5089,-2.5185,-2.5202,-2.505,-2.5049,-2.5049,-2.5048,-2.5048,-2.5228,-2.5242,-2.5239,-2.5265,-2.5288,-2.5262,-2.5295,-2.5269,-2.5244,-2.5265,-2.5273,-2.5272,-2.5268,-2.5271,-2.5271,-2.5272,-2.5272,-2.5272,-2.5272,-2.5339,-2.5334,-2.5365,-2.5371,-2.538,-2.5389,-2.5373,-2.5381,-2.5384,-2.5362,-2.5362,-2.5327,-2.5199,-2.5167,-2.5278,-2.5277,-2.5276,-2.5276,-2.5275,-2.5489,-2.545,-2.5498,-2.5507,-2.5512,-2.5536,-2.5501,-2.552,-2.5523,-2.5541,-2.5502,-2.5411,-2.5392,-2.5381,-2.5355,-2.5507,-2.5507,-2.5507,-2.5507,-2.5578,-2.5566,-2.5608,-2.5624,-2.5637,-2.561,-2.5665,-2.5653,-2.5635,-2.5635,-2.5609,-2.5572,-2.5561,-2.5549,-2.5534,-2.5509,-2.5697,-2.5697,-2.5697,-2.5669,-2.5656,-2.5708,-2.5689,-2.569,-2.5692,-2.5742,-2.5763,-2.5734,-2.5704,-2.5635,-2.5627,-2.5566,-2.5548,-2.5517,-2.5494,-2.5447,0,0]},{"header":{"parameterUnit":"m.s-1","parameterCategory":1,"la1":30.2992,"la2":30.254,"lo1":-89.0895,"lo2":-89.0443,"dy":0.0025,"dx":0.0025,"nx":19,"ny":19,"refTime":"2026-05-14T21:00:00:Z","depth":0,"parameterNumber":3,"parameterNumberName":"V-component_of_WINDS"},"data":[0,0,0,3.1192,3.1193,3.1236,3.1236,3.1301,3.1302,0,0,0,0,0,0,0,0,0,0,0,3.1186,3.1187,3.1192,3.1193,3.1236,3.1236,3.1301,3.1302,0,0,0,0,0,0,0,0,0,0,0,3.1186,3.1187,3.1188,3.1193,3.1236,3.1236,3.1301,3.1264,0,0,0,0,0,0,0,0,0,0,3.1221,3.1224,3.1187,3.1188,3.1193,3.1236,3.1236,3.1262,3.1267,3.1286,0,3.1306,0,3.1305,3.1307,3.1307,0,0,0,3.1187,3.122,3.1225,3.1188,3.1194,3.1236,3.1215,3.1265,3.1269,3.1292,3.1307,3.1309,3.1306,3.1307,3.1308,3.1439,3.144,0,0,3.1185,3.1198,3.1222,3.1228,3.1224,3.1213,3.1216,3.1267,3.1285,3.1307,3.1311,3.1307,3.1308,3.1308,3.1439,3.144,0,0,0,3.1182,3.1197,3.12,3.1226,3.1233,3.1215,3.1218,3.1282,3.1282,3.1311,3.1308,3.1308,3.1309,3.1438,3.1439,3.1494,0,0,0,3.118,3.1195,3.1199,3.1208,3.1232,3.1259,3.1232,3.1279,3.1284,3.1308,3.1308,3.131,3.1437,3.1438,3.149,3.1517,0,0,0,3.1181,3.1195,3.1204,3.1208,3.1227,3.1257,3.126,3.128,3.1283,3.1307,3.131,3.1436,3.1438,3.1487,3.1512,3.1554,0,0,0,3.1186,3.1253,3.1205,3.1278,3.1227,3.1292,3.126,3.1307,3.1335,3.1308,3.1437,3.1439,3.1486,3.1509,3.1551,3.1591,3.161,0,0,3.1278,3.1265,3.1307,3.1265,3.1341,3.1284,3.1368,3.1381,3.1372,3.1417,3.142,3.1491,3.1512,3.1554,3.1711,3.1726,0,0,0,3.134,3.1371,3.1388,3.1415,3.1426,3.1437,3.1436,3.144,3.1478,3.1398,3.1519,3.153,3.1554,3.1573,3.1585,3.1604,3.1448,3.1448,3.1448,3.1489,3.1473,3.154,3.1529,3.1555,3.1552,3.1571,3.1576,3.1553,3.1582,3.1595,3.1692,3.1715,3.1724,3.1744,3.1616,3.1616,3.1616,3.1617,3.1621,3.1661,3.1626,3.168,3.1662,3.1706,3.1705,3.1687,3.1725,3.1682,3.1702,3.1655,3.1741,3.1757,3.162,3.162,3.1619,3.1619,3.1619,3.1716,3.1731,3.1735,3.177,3.1799,3.1785,3.1822,3.1805,3.1789,3.1809,3.1819,3.1818,3.1814,3.1815,3.1816,3.1816,3.1816,3.1817,3.1817,3.1812,3.1814,3.1848,3.1864,3.1878,3.1893,3.189,3.1902,3.1912,3.1896,3.1896,3.1868,3.1753,3.1723,3.1822,3.1821,3.182,3.182,3.1819,3.1949,3.1915,3.1967,3.1981,3.1997,3.2025,3.2002,3.2029,3.2037,3.2055,3.2023,3.1941,3.1926,3.1916,3.1892,3.2028,3.2028,3.2028,3.2028,3.2028,3.2019,3.2066,3.2089,3.2108,3.2092,3.215,3.2147,3.2139,3.2142,3.212,3.2086,3.2077,3.2068,3.2054,3.2031,3.2199,3.2199,3.22,3.2111,3.2102,3.2155,3.2146,3.2157,3.2166,3.2219,3.2245,3.2229,3.2206,3.2144,3.2137,3.2082,3.2065,3.2041,3.202,3.1977,0,0]}]]